Location: Ecklingerode
(51.5036°N, 10.3122°E)
Time: 01:15:10
(UTC+00:00)

Cosmos 1455 - Pass Details

Date: 29 October 2020
Orbit: 500 x 521 km, 82.5° (Epoch: 23 November)

Event Time Altitude Azimuth Distance (km) Brightness Sun altitude
Rises 17:53:00 0° 185° (S) 2,602 5.8 -18.6°
Reaches altitude 10° 17:55:07 10° 184° (S) 1,725 4.9 -18.9°
Maximum altitude 17:58:53 77° 99° (E) 532 2.0 -19.5°
Drops below altitude 10° 18:02:44 10° 13° (NNE) 1,754 4.8 -20.1°
Enters shadow 18:04:17 - 12° (NNE) 2,399 5.5 -20.3°
Exits shadow 18:04:52 - 12° (NNE) 2,641 5.7 -20.4°
Sets 18:04:53 0° 12° (NNE) 2,650 5.7 -20.4°
